Westfield, IN

2:46 PM EDT on August 25, 2016 (GMT -0400)
Indianapolis Terry

Weather History for KTYQ - March, 2013

Change the Weather History Date:

Friday, March 15, 2013

  Actual Average (KEYE) Record (KEYE)
Temperature  
Mean Temperature 38 °F 42 °F  
Max Temperature 48 °F 51 °F 79 °F (2012)
Min Temperature 29 °F 33 °F 19 °F (1997)
Degree Days  
Heating Degree Days 26 23  
Month to date heating degree days 384  
Since 1 July heating degree days 4509  
Cooling Degree Days 0 0  
Month to date cooling degree days 0  
Year to date cooling degree days 0  
Moisture  
Dew Point 32 °F    
Average Humidity 76    
Maximum Humidity 90    
Minimum Humidity 60    
Precipitation  
Precipitation 0.00 in 0.11 in 1.87 in (2007)
Month to date precipitation 1.21  
Year to date precipitation 5.55  
Sea Level Pressure  
Sea Level Pressure 29.95 in    
Wind  
Wind Speed 6 mph (South)    
Max Wind Speed 10 mph    
Max Gust Speed -    
Visibility 8 miles    
Events Rain    
T = Trace of Precipitation, MM = Missing Value Source: NWS Daily Summary

Daily Weather History Graph

Daily Weather History Graph

Search for Another Location

Airport or City:

Trip Planner

Search our weather history database for the weather conditions in past years. The results will help you decide how hot, cold, wet, or windy it might be!

Date:

Astronomy

Mar. 15, 2013 Rise Set
Actual Time 7:56 AM EDT 7:52 PM EDT
Civil Twilight 7:29 AM EDT 8:19 PM EDT
Nautical Twilight 6:57 AM EDT 8:50 PM EDT
Astronomical Twilight 6:25 AM EDT 9:22 PM EDT
Moon 9:46 AM EDT (3/15) No Moon Set
Length of Visible Light 12h 50m
Length of Day
11h 56m
Waxing Crescent, 15% of the Moon is Illuminated
Mar 15
Waxing Crescent
Mar 19
First Quarter
Mar 27
Full
Apr 3
Last Quarter
Apr 10
New

Hourly Weather History & Observations

Time (EDT) Temp. Windchill Dew Point Humidity Pressure Visibility Wind Dir Wind Speed Gust Speed Precip Events Conditions
12:15 AM 32.2 °F 23.8 °F 28.4 °F 86% 30.14 in 7.0 mi SSW 10.4 mph - N/A   Mostly Cloudy
12:35 AM 32.0 °F 25.6 °F 28.4 °F 87% 30.14 in 7.0 mi SSW 6.9 mph - N/A   Scattered Clouds
12:55 AM 32.0 °F 25.6 °F 28.4 °F 87% 30.14 in 7.0 mi SSW 6.9 mph - N/A   Clear
1:15 AM 32.0 °F 26.4 °F 28.0 °F 85% 30.14 in 7.0 mi SSW 5.8 mph - N/A   Clear
1:35 AM 31.8 °F 26.2 °F 28.0 °F 86% 30.12 in 7.0 mi SSW 5.8 mph - N/A   Clear
1:55 AM 31.6 °F 27.0 °F 27.7 °F 85% 30.12 in 7.0 mi SSW 4.6 mph - N/A   Clear
2:15 AM 31.1 °F 26.4 °F 27.5 °F 87% 30.12 in 7.0 mi South 4.6 mph - N/A   Clear
2:35 AM 31.3 °F 24.7 °F 27.9 °F 87% 30.10 in 5.0 mi South 6.9 mph - N/A   Clear
2:55 AM 31.1 °F 23.7 °F 27.9 °F 88% 30.08 in 5.0 mi South 8.1 mph - N/A   Clear
3:15 AM 31.1 °F 23.7 °F 27.9 °F 88% 30.07 in 7.0 mi SSW 8.1 mph - N/A   Clear
3:35 AM 31.3 °F 25.6 °F 27.9 °F 87% 30.07 in 7.0 mi SSW 5.8 mph - N/A   Clear
3:55 AM 31.5 °F 25.8 °F 27.9 °F 87% 30.06 in 7.0 mi South 5.8 mph - N/A   Clear
4:15 AM 31.5 °F 25.8 °F 27.9 °F 87% 30.06 in 7.0 mi South 5.8 mph - N/A   Clear
4:35 AM 31.1 °F 27.7 °F 27.5 °F 87% 30.06 in 5.0 mi South 3.5 mph - N/A   Clear
4:55 AM 30.9 °F - 27.5 °F 87% 30.06 in 5.0 mi Calm Calm - N/A   Clear
5:15 AM 30.2 °F 26.7 °F 27.0 °F 88% 30.04 in 4.0 mi SSE 3.5 mph - N/A   Clear
5:35 AM 30.0 °F - 26.8 °F 88% 30.03 in 3.0 mi Calm Calm - N/A   Clear
5:55 AM 29.7 °F - 26.6 °F 88% 30.03 in 3.0 mi Calm Calm - N/A   Clear
6:15 AM 29.7 °F 24.7 °F 26.6 °F 88% 30.02 in 3.0 mi South 4.6 mph - N/A   Clear
6:35 AM 29.3 °F 25.6 °F 26.6 °F 90% 30.02 in 3.0 mi South 3.5 mph - N/A   Clear
6:55 AM 29.7 °F 26.1 °F 26.6 °F 88% 30.01 in 3.0 mi South 3.5 mph - N/A   Clear
7:15 AM 29.7 °F 24.7 °F 27.0 °F 90% 30.00 in 3.0 mi South 4.6 mph - N/A   Clear
7:35 AM 29.8 °F 26.3 °F 27.0 °F 89% 30.00 in 4.0 mi South 3.5 mph - N/A   Clear
7:55 AM 29.7 °F - 26.8 °F 89% 30.00 in 4.0 mi Calm Calm - N/A   Clear
8:15 AM 29.7 °F 26.1 °F 26.6 °F 88% 29.99 in 3.0 mi SSE 3.5 mph - N/A   Clear
8:35 AM 30.2 °F 26.7 °F 27.5 °F 90% 29.99 in 3.0 mi South 3.5 mph - N/A   Clear
8:55 AM 30.9 °F 26.2 °F 28.0 °F 89% 29.99 in 3.0 mi South 4.6 mph - N/A   Clear
9:15 AM 31.5 °F 28.1 °F 28.4 °F 88% 29.99 in 4.0 mi SSW 3.5 mph - N/A   Clear
9:35 AM 32.0 °F 26.4 °F 29.3 °F 90% 29.98 in 4.0 mi SSW 5.8 mph - N/A   Clear
9:55 AM 33.3 °F 27.9 °F 30.0 °F 88% 29.98 in 7.0 mi SSW 5.8 mph - N/A   Clear
10:15 AM 34.2 °F 30.0 °F 30.2 °F 85% 29.99 in 7.0 mi WSW 4.6 mph - N/A   Clear
10:35 AM 35.1 °F 28.6 °F 30.2 °F 82% 29.97 in 10.0 mi SW 8.1 mph - N/A   Clear
10:55 AM 35.6 °F 29.9 °F 30.6 °F 82% 29.97 in 10.0 mi WSW 6.9 mph - N/A   Clear
11:55 AM 38.7 °F 32.9 °F 31.6 °F 76% 29.97 in 10.0 mi WSW 8.1 mph - N/A   Clear
12:15 PM 40.1 °F 36.1 °F 32.0 °F 73% 29.96 in 10.0 mi WSW 5.8 mph - N/A   Clear
12:35 PM 40.8 °F 38.8 °F 32.0 °F 71% 29.95 in 10.0 mi West 3.5 mph - N/A   Clear
12:55 PM 42.1 °F - 32.0 °F 67% 29.95 in 10.0 mi Calm Calm - N/A   Scattered Clouds
1:15 PM 43.0 °F - 32.0 °F 65% 29.95 in 10.0 mi Calm Calm - N/A   Scattered Clouds
1:35 PM 44.6 °F - 33.1 °F 64% 29.94 in 10.0 mi Calm Calm - N/A   Clear
1:55 PM 45.3 °F 43.0 °F 33.4 °F 63% 29.94 in 10.0 mi SSW 4.6 mph - N/A   Clear
2:15 PM 46.2 °F 44.1 °F 33.6 °F 61% 29.93 in 10.0 mi South 4.6 mph - N/A   Scattered Clouds
2:35 PM 46.8 °F - 33.8 °F 61% 29.92 in 10.0 mi SSW 5.8 mph - N/A   Scattered Clouds
2:55 PM 48.0 °F - 34.9 °F 60% 29.91 in 10.0 mi SW 8.1 mph - N/A   Scattered Clouds
3:15 PM 48.6 °F - 35.4 °F 60% 29.91 in 10.0 mi SW 9.2 mph - N/A   Mostly Cloudy
3:35 PM 48.4 °F - 35.4 °F 61% 29.90 in 10.0 mi SW 9.2 mph - N/A   Overcast
3:55 PM 48.6 °F - 36.0 °F 62% 29.89 in 10.0 mi SSW 8.1 mph - N/A   Overcast
4:15 PM 48.6 °F - 36.0 °F 62% 29.88 in 10.0 mi SW 8.1 mph - N/A   Overcast
4:35 PM 48.7 °F - 36.3 °F 62% 29.88 in 10.0 mi SSW 6.9 mph - N/A   Overcast
4:55 PM 48.4 °F - 36.5 °F 64% 29.89 in 10.0 mi SW 6.9 mph - N/A   Overcast
5:15 PM 48.7 °F - 36.5 °F 63% 29.88 in 10.0 mi SSW 5.8 mph - N/A   Overcast
5:35 PM 48.6 °F - 36.0 °F 62% 29.87 in 10.0 mi SSW 6.9 mph - N/A   Overcast
5:55 PM 48.6 °F - 36.3 °F 63% 29.88 in 10.0 mi SW 4.6 mph - N/A   Overcast
6:15 PM 48.7 °F - 36.3 °F 62% 29.86 in 10.0 mi SSW 5.8 mph - N/A   Overcast
6:35 PM 48.6 °F - 37.0 °F 64% 29.85 in 10.0 mi SSE 3.5 mph - N/A   Overcast
6:55 PM 48.2 °F - 37.4 °F 66% 29.85 in 10.0 mi South 3.5 mph - N/A   Overcast
7:15 PM 47.7 °F - 36.7 °F 66% 29.85 in 10.0 mi SSE 6.9 mph - N/A   Overcast
7:35 PM 47.5 °F - 36.3 °F 65% 29.85 in 10.0 mi South 4.6 mph - N/A   Overcast
7:55 PM 46.2 °F - 37.4 °F 71% 29.85 in 10.0 mi Calm Calm - N/A   Overcast
8:15 PM 45.5 °F 44.2 °F 37.4 °F 73% 29.84 in 10.0 mi ESE 3.5 mph - N/A   Overcast
8:35 PM 46.8 °F - 36.0 °F 66% 29.82 in 10.0 mi SE 5.8 mph - N/A   Overcast
8:55 PM 46.4 °F 45.2 °F 36.0 °F 67% 29.82 in 10.0 mi SE 3.5 mph - N/A Rain Light Rain
9:15 PM 46.8 °F - 35.8 °F 66% 29.80 in 10.0 mi ESE 5.8 mph - N/A   Overcast
9:35 PM 46.6 °F - 35.6 °F 66% 29.82 in 10.0 mi Calm Calm - N/A   Overcast
9:55 PM 45.5 °F 42.5 °F 36.5 °F 71% 29.80 in 10.0 mi NE 5.8 mph - N/A   Overcast
10:15 PM 45.5 °F 41.3 °F 36.3 °F 70% 29.78 in 10.0 mi East 8.1 mph - N/A   Mostly Cloudy
10:55 PM 45.7 °F 43.4 °F 35.8 °F 68% 29.80 in 10.0 mi East 4.6 mph - N/A   Overcast
11:15 PM 45.3 °F 42.3 °F 36.1 °F 70% 29.79 in 10.0 mi East 5.8 mph - N/A   Overcast
11:35 PM 45.0 °F 41.8 °F 36.5 °F 72% 29.79 in 10.0 mi ENE 5.8 mph - N/A Rain Light Rain
11:55 PM 44.6 °F 41.4 °F 36.9 °F 74% 29.77 in 10.0 mi ENE 5.8 mph - N/A   Overcast